Home > Time Zones > World Clock > Weather > Japan > Naha > Past weeks

Flag for Japan Weather past 2 weeks in Naha, Okinawa, Japan

Now
73 °F

Sprinkles. Partly cloudy.


Feels Like: 72 °F
Forecast: 73 / 76 °F
Wind: 8 mph from Southeast

Location: Naha Airport

Current Time: Apr 19, 2015 at 5:52:43 AM

Latest Report: Apr 19, 2015 at 5:30 AM


Visibility: N/A

Pressure: 29.92 "Hg

Humidity: 89%

Dew point: 70 °F

Location of NahaLocation

Historic Weather in Naha — Graph

°F

Naha temperature yesterday

Maximum temperature yesterday: 77 °F (at 10:30 AM)
Minimum temperature yesterday: 72 °F (at 12:00 AM)
Average temperature yesterday: 74 °F

Past Weeks' High & Low Weather Summary

 TemperatureHumidityPressure
High84 °F (Apr 4, 1:30 PM)94% (Apr 4, 4:30 AM)30.09 "Hg (Apr 4, 4:30 AM)
Low63 °F (Apr 14, 3:30 AM)31% (Apr 15, 12:30 PM)29.86 "Hg (Apr 4, 4:00 AM)
Average72 °F74%30.00 "Hg
* Reported Apr 4 4:00 AM — Apr 19 4:30 AM, Naha, Weather by CustomWeather, © 2015

Note: Actual official high and low records may vary slightly from our data, if they occured in-between our weather recording intervals... More about our weather records

Advertising

Naha weather history for previous 24 hours

 ConditionsComfort  
Time TempWeatherWind HumidityBarometerVisibility
4:30 AM
Sun, Apr 19
73 °FPartly cloudy.9 mph89%29.92 "HgN/A
4:00 AM73 °FLight rain. Passing clouds.9 mph83%29.92 "HgN/A
3:30 AM73 °FLight rain. Passing clouds.10 mph83%29.92 "HgN/A
3:00 AM73 °FPartly cloudy.12 mph83%29.92 "HgN/A
2:30 AM73 °FLight rain. Partly cloudy.12 mph83%29.95 "HgN/A
2:00 AM73 °FLight rain. Partly cloudy.12 mph83%29.95 "HgN/A
1:30 AM73 °FLight rain. Passing clouds.12 mph78%29.98 "HgN/A
1:00 AM73 °FPassing clouds.12 mph78%29.95 "HgN/A
12:30 AM73 °FPassing clouds.14 mph78%29.95 "HgN/A
12:00 AM73 °FPassing clouds.12 mph78%29.98 "HgN/A
11:30 PM
Sat, Apr 18
73 °FPassing clouds.14 mph78%29.95 "HgN/A
11:00 PM73 °FPartly cloudy.13 mph78%29.95 "HgN/A
10:30 PM73 °FPassing clouds.13 mph78%29.95 "HgN/A
10:00 PM73 °FPassing clouds.12 mph74%29.95 "HgN/A
9:30 PM73 °FPassing clouds.10 mph74%29.95 "HgN/A
9:00 PM73 °FPassing clouds.12 mph74%29.95 "HgN/A
8:30 PM73 °FPassing clouds.13 mph78%29.95 "HgN/A
8:00 PM73 °FPassing clouds.10 mph78%29.95 "HgN/A
7:30 PM73 °FPassing clouds.12 mph74%29.95 "HgN/A
7:00 PM73 °FPartly cloudy.10 mph74%29.98 "HgN/A
6:30 PM73 °FBroken clouds.14 mph74%29.95 "HgN/A
6:00 PM73 °FSunny.15 mph69%29.92 "Hg10 mi
5:30 PM75 °FLight rain. Clear.12 mph65%29.95 "HgN/A
5:00 PM75 °FSunny.13 mph65%29.95 "Hg10 mi
4:30 PM75 °FSunny.16 mph65%29.95 "Hg10 mi
4:00 PM75 °FSunny.13 mph61%29.95 "Hg10 mi
3:30 PM75 °FSunny.15 mph61%29.95 "Hg10 mi
3:00 PM77 °FSunny.16 mph57%29.95 "Hg10 mi
2:30 PM77 °FSunny.15 mph65%29.98 "Hg10 mi
2:00 PM75 °FSunny.16 mph69%30.01 "Hg10 mi
1:30 PM75 °FPartly sunny.15 mph65%30.01 "HgN/A
1:00 PM75 °FPartly sunny.15 mph65%30.01 "HgN/A
12:30 PM75 °FPartly sunny.13 mph69%30.01 "HgN/A
12:00 PM75 °FPartly sunny.15 mph69%30.01 "HgN/A
11:30 AM75 °FPartly sunny.13 mph69%30.04 "HgN/A
11:00 AM77 °FPartly sunny.13 mph65%30.04 "HgN/A
10:30 AM77 °FPartly sunny.13 mph65%30.07 "HgN/A
10:00 AM75 °FPartly sunny.14 mph74%30.04 "HgN/A
9:30 AM75 °FPartly sunny.16 mph74%30.04 "HgN/A
9:00 AM75 °FBroken clouds.15 mph74%30.04 "HgN/A
8:30 AM75 °FPartly sunny.13 mph74%30.04 "HgN/A
8:00 AM73 °FPartly sunny.12 mph78%30.04 "HgN/A
7:30 AM73 °FPartly sunny.13 mph78%30.01 "HgN/A
7:00 AM73 °FPartly sunny.13 mph78%30.01 "HgN/A
6:30 AM72 °FPartly sunny.8 mph83%29.98 "HgN/A
5:30 AM72 °FPassing clouds.9 mph83%29.98 "HgN/A
5:00 AM72 °FPassing clouds.8 mph83%29.98 "HgN/A
Weather by CustomWeather, © 2015

See weather overviewHow to use our weather pages